Theta_e
320 320 320 321 321 321 321 322 322 323 323 323 323 323 324 323 323 324 324 324 324 324 325 325 326 326 326 327 327 327 326 322 319 316 314 318 327 337 335 336 333 334 330 317 315 311 309 310 309 312 312 314 315 312 319 315 315 313 302 298 294 296 296 300 298 299 301 297 298 300 301 300 298 302 305 304 303 303 303 303 305 306 306 307 309 313 314 315
319 319 320 320 321 321 321 321 322 322 322 323 323 323 323 323 323 324 324 324 324 324 324 325 325 326 326 326 326 326 324 324 315 313 313 333 337 336 338 337 337 332 328 316 312 309 308 308 309 310 309 308 321 310 314 312 315 306 300 298 294 298 300 303 302 302 300 299 301 301 300 300 300 301 304 300 299 300 300 302 302 302 304 307 308 312 313 313
319 319 319 320 320 321 321 321 322 321 322 322 322 322 322 322 323 323 323 323 323 324 324 324 325 325 326 326 326 325 324 324 319 311 322 332 338 338 339 336 333 333 320 314 313 311 309 309 309 309 308 304 310 307 313 310 310 305 301 295 297 302 302 303 303 303 303 302 301 301 300 300 301 301 304 300 299 300 299 299 300 301 302 304 305 309 310 311
319 319 320 320 320 320 320 321 321 321 321 322 321 322 322 322 323 323 323 323 323 323 324 324 324 325 325 325 326 324 324 326 312 313 328 337 340 339 340 337 333 330 322 316 314 313 312 312 308 310 308 303 306 310 306 310 305 305 301 297 299 301 299 301 303 303 304 303 301 301 301 300 301 301 302 301 298 299 301 303 302 302 302 303 304 305 309 309
319 320 320 320 320 320 320 320 321 321 321 321 322 322 322 322 323 323 323 323 323 323 323 324 324 324 325 325 324 324 325 307 307 322 327 339 339 343 338 336 333 322 319 316 314 312 311 308 306 309 307 300 304 303 303 306 307 307 300 302 303 303 299 302 303 303 303 303 302 301 299 299 303 302 300 301 297 296 299 303 304 304 305 305 305 305 306 305
320 320 320 319 319 319 319 320 321 321 321 321 322 322 322 322 323 322 323 323 323 323 323 323 323 324 324 324 323 326 317 293 315 323 331 336 341 339 337 334 332 322 316 314 310 310 309 307 306 304 302 300 299 297 300 305 308 299 302 303 303 302 301 303 303 304 302 302 301 300 302 302 300 300 301 301 300 302 305 306 306 307 307 308 307 306 305 305
320 320 319 319 318 318 319 320 320 321 321 321 322 322 322 322 322 323 322 323 323 323 323 323 323 324 323 324 324 319 310 307 318 331 334 338 339 338 336 334 330 325 317 310 309 309 307 305 305 302 301 300 301 300 302 302 304 302 299 301 302 303 301 302 301 302 302 302 301 302 303 300 300 297 301 300 303 304 305 306 306 306 307 308 307 306 305 305
320 320 320 318 318 318 319 320 320 320 321 321 322 322 322 322 323 322 322 323 323 323 323 322 323 323 323 321 324 315 311 307 317 332 333 337 335 333 331 327 319 321 313 309 308 307 307 304 302 306 300 298 300 300 302 300 302 299 299 302 303 303 302 302 301 302 302 302 303 301 300 301 301 300 301 300 303 304 305 306 306 306 306 306 306 305 305 305
320 320 320 319 318 318 318 319 320 320 321 322 322 322 322 323 322 322 322 322 323 322 322 322 322 322 323 321 315 307 306 324 321 333 335 333 327 326 324 316 316 313 311 310 310 309 311 305 304 305 298 300 303 300 301 299 296 300 300 300 300 300 302 302 302 302 301 301 301 300 300 302 302 302 300 301 303 305 305 305 305 305 304 304 304 304 304 303
321 321 320 319 319 319 319 319 319 321 322 322 322 322 323 323 323 322 322 322 322 322 321 321 321 321 319 318 314 300 321 315 332 333 331 328 323 321 319 323 314 313 310 309 310 308 306 306 308 310 309 302 304 300 301 300 297 301 300 300 299 300 300 301 300 300 301 300 301 298 298 300 301 301 295 301 303 303 302 302 303 302 302 302 302 303 302 303
321 320 320 320 320 319 319 319 319 321 322 322 323 323 323 323 322 322 322 322 322 321 321 321 323 320 318 314 304 300 320 324 325 326 326 326 320 316 318 323 315 313 311 312 309 310 309 308 313 309 307 300 301 299 300 300 302 301 299 298 299 299 300 300 300 300 300 299 300 300 298 299 300 300 297 301 303 303 302 303 303 302 302 302 303 303 303 304
321 320 320 320 320 319 319 319 320 321 322 322 323 323 322 322 322 321 321 321 321 321 321 321 322 320 318 312 305 308 317 322 327 323 322 323 323 322 320 318 316 321 313 309 313 317 316 316 315 307 297 304 296 300 299 299 301 299 298 294 296 298 297 299 298 300 300 299 300 301 297 295 296 295 300 302 304 303 302 302 302 302 302 302 302 302 302 302
320 320 320 320 319 319 319 320 321 321 322 323 322 322 322 322 321 321 321 321 321 321 321 321 320 320 319 305 309 319 318 322 323 322 323 320 318 317 318 320 320 316 315 312 311 313 316 313 312 304 306 302 300 296 301 300 300 299 298 295 294 295 294 299 301 300 299 299 299 297 286 290 294 298 300 302 302 301 300 299 300 301 302 303 303 303 303 303
320 319 319 320 319 319 319 320 321 322 322 323 323 322 322 321 321 321 321 320 321 320 321 321 320 318 315 305 312 314 316 320 319 321 321 322 316 320 320 320 320 317 319 317 314 311 316 310 313 307 310 302 299 306 301 300 300 294 297 296 291 290 290 299 300 297 297 299 299 297 288 290 295 299 302 303 302 300 298 298 299 302 302 303 303 302 302 303
320 319 320 320 319 319 319 320 322 322 323 323 323 322 321 321 321 320 321 321 320 320 321 321 319 317 304 306 310 315 320 315 313 317 321 316 314 315 317 317 317 318 312 313 315 315 310 314 312 304 299 304 304 299 295 295 295 295 291 288 292 289 292 298 302 297 296 296 297 296 288 290 295 298 302 303 301 302 300 300 301 302 302 303 303 302 301 302
321 321 320 319 319 320 320 321 321 322 323 323 322 322 322 320 320 320 320 320 318 320 320 318 316 316 303 301 313 323 319 309 309 316 314 318 319 316 314 315 316 317 311 308 311 313 308 314 302 301 300 301 297 293 292 291 292 294 291 290 290 291 293 295 300 298 299 296 296 295 290 293 294 298 299 301 301 300 300 300 301 301 302 302 302 302 301 301
320 321 321 320 320 321 321 321 321 321 323 322 322 322 322 318 318 318 320 321 320 319 321 317 313 309 300 310 308 308 306 313 312 318 315 314 315 316 312 312 311 310 313 310 313 312 307 302 305 301 304 296 296 296 288 286 288 290 293 290 293 292 293 291 298 299 301 296 293 295 291 291 295 297 299 300 300 299 299 299 300 301 301 301 301 301 300 300
321 321 321 321 321 321 321 321 321 322 322 322 321 323 322 320 320 319 319 317 324 321 319 321 315 310 304 311 304 305 310 308 318 315 317 311 315 314 312 306 309 308 308 304 309 301 304 299 300 294 297 295 294 292 287 284 289 290 291 291 292 294 293 293 292 298 300 298 296 296 296 296 297 298 299 300 301 301 300 300 300 300 301 302 301 301 301 302
321 320 320 321 321 321 321 321 322 323 322 322 325 323 320 320 320 321 317 319 314 313 305 304 304 298 299 308 310 307 316 313 314 316 307 310 317 313 312 312 310 303 301 299 299 300 301 300 302 295 291 292 293 293 291 293 295 293 293 292 292 290 292 292 296 300 299 296 295 295 294 295 297 297 298 300 301 300 300 300 300 301 300 300 301 301 302 302
320 320 321 322 322 321 321 322 323 323 322 321 322 322 318 315 315 313 311 311 306 307 308 310 308 309 311 312 313 309 315 316 307 313 312 317 312 311 306 306 309 306 300 297 298 299 301 293 290 289 293 296 298 297 296 297 297 296 295 294 293 292 293 296 297 299 299 296 295 295 295 294 295 296 298 299 300 299 299 299 300 300 299 300 300 302 302 302
321 321 321 321 321 321 321 322 323 322 322 321 321 318 309 308 304 303 307 310 313 314 312 312 313 311 310 314 310 309 307 305 308 308 314 315 311 305 301 303 301 297 298 301 299 301 302 292 293 296 297 298 299 300 299 298 298 296 294 293 292 293 291 295 296 299 300 295 292 294 293 293 295 297 299 300 299 298 298 298 299 299 298 300 301 301 301 302
320 320 321 321 321 321 322 322 322 322 321 322 320 315 313 308 310 312 308 303 312 315 314 314 315 312 316 316 313 313 311 306 306 308 315 313 306 301 301 301 298 296 301 300 298 294 293 291 296 299 301 301 300 299 299 297 296 296 293 291 290 291 294 297 297 299 296 294 291 292 291 292 295 297 298 298 298 299 300 300 299 299 299 300 300 300 300 300
320 320 321 321 321 322 322 322 322 321 321 321 317 315 310 312 316 316 311 304 302 310 309 310 309 311 312 316 313 311 305 303 303 307 305 310 304 303 304 298 298 298 301 299 294 293 290 294 298 301 301 299 298 298 298 297 296 292 291 288 287 292 291 288 295 296 297 294 291 292 291 292 296 298 298 299 299 299 302 301 301 301 300 300 300 299 298 298
320 320 320 321 321 321 322 322 321 322 323 321 316 312 316 316 314 313 307 300 301 308 312 311 309 308 309 306 310 306 304 305 306 305 309 307 302 304 302 301 298 298 297 298 297 295 294 299 303 300 301 298 297 297 296 294 291 294 294 291 291 292 293 292 292 294 295 296 296 292 290 290 294 293 294 297 299 299 299 299 299 299 300 300 300 299 299 297
320 320 320 320 320 321 321 321 320 322 322 320 315 314 314 315 313 315 305 301 302 303 311 312 311 311 307 314 312 303 304 305 307 305 309 311 305 302 300 305 301 296 298 300 299 296 296 301 302 298 299 299 297 294 295 295 290 292 294 295 294 295 293 294 294 292 288 287 292 292 282 284 291 293 295 297 297 297 297 296 296 297 298 298 297 297 298 297
320 320 320 320 320 321 322 317 320 321 319 316 312 315 314 314 314 313 304 295 291 304 304 300 312 300 313 302 310 308 304 299 304 308 314 310 307 302 301 298 301 296 298 299 297 297 297 300 300 298 297 296 296 294 295 297 290 289 290 297 298 296 294 293 292 289 282 281 290 293 282 281 290 291 293 296 296 295 295 295 295 296 296 296 296 296 296 296
316 316 318 319 320 321 317 315 317 319 316 312 315 314 315 314 316 311 300 294 290 304 301 301 304 304 309 305 308 306 292 297 306 307 307 310 303 309 297 297 298 300 300 300 294 291 297 297 295 297 297 295 294 291 296 296 291 287 295 296 295 294 292 291 291 289 286 290 292 292 289 282 283 288 295 296 296 293 293 293 294 295 295 295 295 295 295 295
314 314 315 318 320 320 319 319 319 317 312 313 316 315 314 313 313 310 299 285 285 305 301 299 305 309 307 302 307 299 296 302 297 299 303 308 305 302 298 297 297 298 297 296 285 297 297 294 295 294 293 291 292 295 299 298 293 292 294 295 293 293 292 291 289 286 286 285 282 287 290 282 281 289 295 295 292 291 291 292 293 294 294 294 294 294 294 294
312 312 314 317 319 320 321 319 317 314 313 313 314 312 313 313 307 301 292 282 301 303 309 298 310 306 303 302 299 299 297 298 294 299 306 306 308 301 295 297 297 296 298 297 291 295 298 297 298 298 293 291 295 295 296 299 293 296 295 295 295 293 293 291 285 285 284 282 280 285 289 281 282 290 291 292 290 289 290 292 293 293 293 293 292 293 293 294
310 311 312 315 319 318 318 318 317 314 313 313 312 311 311 308 304 294 287 281 301 293 302 301 301 297 300 295 295 298 295 297 299 299 301 299 302 304 299 299 296 295 295 297 295 295 297 296 298 296 295 297 294 292 294 297 295 295 296 292 291 291 288 287 287 285 283 278 281 287 290 287 279 287 290 290 291 291 291 292 293 293 292 292 292 291 292 292
309 310 310 313 316 317 318 314 314 312 313 313 313 310 310 307 296 288 282 292 298 300 302 300 296 302 296 294 293 297 298 297 297 298 295 301 297 298 298 293 299 292 288 289 289 294 296 295 294 296 300 297 296 293 293 295 295 294 289 286 287 285 285 285 284 284 277 277 284 288 290 290 278 282 290 290 292 293 292 291 291 290 290 290 290 291 291 291
308 308 309 312 311 314 314 313 313 314 313 314 311 310 308 292 297 285 286 299 290 297 297 297 299 298 297 300 298 295 294 296 297 296 294 291 292 292 291 290 291 285 285 285 285 291 289 291 294 298 297 297 293 291 292 291 292 290 287 285 282 280 282 278 280 274 278 277 283 285 288 284 284 288 292 294 292 293 293 293 291 289 289 289 289 289 289 289
307 307 309 310 313 316 315 314 314 314 315 313 312 311 299 290 281 292 291 297 291 301 298 304 300 298 301 299 295 299 301 296 297 296 299 297 294 294 297 296 298 293 285 289 287 287 288 292 294 294 296 297 296 287 285 284 286 287 284 281 280 276 276 273 277 280 280 283 284 284 287 281 287 289 293 292 291 292 290 290 290 289 288 288 288 288 288 288
306 308 309 309 308 310 313 314 314 314 313 313 310 303 294 284 284 296 294 295 296 301 302 300 299 299 299 294 299 299 293 299 297 295 297 295 294 291 294 298 298 295 294 289 286 285 282 283 290 292 289 296 295 294 292 292 288 287 289 288 283 281 277 272 276 274 275 279 282 286 280 279 279 284 289 291 291 290 290 290 289 289 289 288 288 287 287 286
306 306 308 309 310 310 314 313 314 314 315 311 304 295 284 284 289 289 289 293 297 300 299 300 299 297 295 295 298 300 298 294 298 298 294 293 290 290 292 293 297 298 295 288 289 286 287 286 292 297 293 295 293 296 298 294 289 289 290 291 285 282 286 281 281 279 278 279 278 280 279 282 285 290 291 291 290 289 289 289 289 288 288 288 287 287 286 286
305 305 305 303 306 311 312 313 313 315 313 306 296 288 285 289 286 293 292 302 299 296 298 299 298 294 292 292 296 296 302 294 298 296 293 294 295 293 295 295 295 298 293 287 289 282 285 282 291 296 294 293 292 294 296 296 280 286 287 282 285 290 289 282 282 283 281 280 278 282 282 285 291 290 289 289 288 287 287 287 287 287 287 286 286 286 285 285
302 305 298 303 306 312 312 313 313 313 310 303 293 285 291 293 297 296 299 298 298 298 297 290 292 292 291 289 291 295 296 297 294 293 288 295 291 295 294 296 298 298 299 294 288 293 282 286 293 293 291 292 291 292 293 294 294 287 281 285 291 292 290 284 276 280 277 275 277 282 278 280 281 276 287 286 285 286 286 285 286 286 285 285 285 285 285 285
301 301 301 302 306 312 313 313 313 311 306 299 290 291 297 292 299 297 300 298 299 300 293 291 292 295 289 289 290 294 297 292 293 292 288 293 287 296 293 294 296 297 295 296 289 289 292 282 289 293 293 293 292 293 291 294 295 289 286 293 283 281 280 283 280 272 272 272 273 276 280 280 282 283 285 284 284 284 285 285 285 285 284 284 284 284 285 286
300 301 296 304 309 312 312 314 313 308 301 293 289 288 294 295 298 298 300 300 301 298 292 293 290 293 292 289 291 295 295 288 292 289 286 289 285 294 294 296 293 295 295 297 289 291 292 281 284 292 292 292 292 290 281 286 292 294 293 287 290 284 282 280 281 279 279 274 275 274 280 277 286 285 287 285 286 285 285 285 284 285 285 285 284 285 285 285
296 295 293 304 308 312 313 313 308 303 297 288 290 290 296 295 298 299 300 299 297 295 293 292 294 290 292 292 293 290 293 293 291 289 290 290 289 300 293 299 294 295 295 297 293 295 284 289 278 287 292 291 282 286 283 286 282 284 284 282 285 284 286 284 281 280 278 275 275 275 273 279 285 288 287 287 288 288 287 286 286 287 287 287 286 286 286 285
300 296 296 306 309 312 312 307 299 294 293 295 295 293 295 294 300 299 303 304 300 301 296 295 293 290 292 290 290 294 290 290 291 288 290 290 289 284 295 295 297 295 297 295 292 291 285 284 282 284 284 282 285 293 293 292 292 289 288 284 285 282 280 278 277 284 280 279 276 276 274 280 288 290 289 288 288 288 288 287 286 286 286 286 285 285 285 285
295 287 295 307 309 311 304 294 295 298 295 291 291 294 293 300 297 299 299 302 300 297 302 297 296 294 293 293 293 291 290 288 290 288 290 288 292 291 295 296 297 297 292 286 288 294 290 286 282 281 283 284 289 292 293 293 292 291 290 285 289 285 284 279 275 278 282 280 281 280 277 280 287 289 289 288 289 288 288 288 286 286 286 285 285 285 286 286
292 290 301 305 309 308 299 292 294 293 292 295 299 298 299 299 297 298 297 299 296 299 297 295 295 293 294 293 293 291 292 287 290 288 290 290 291 294 296 298 298 297 295 287 293 292 292 282 279 282 286 288 291 292 292 293 293 289 289 289 287 284 285 283 282 282 279 281 279 278 276 281 287 288 288 288 287 287 287 287 287 286 285 285 284 285 285 285
293 294 296 305 308 306 296 286 287 289 291 295 296 295 299 297 297 296 295 297 296 295 294 294 295 297 293 295 292 290 293 283 289 289 288 291 288 295 295 295 296 290 292 288 286 290 282 282 282 278 279 281 282 284 285 287 287 283 282 285 287 287 285 283 282 281 277 280 281 278 273 279 285 286 285 287 286 285 285 286 285 284 284 283 283 284 284 284
295 297 297 301 305 303 291 293 291 290 290 291 291 291 293 295 298 297 296 295 298 295 294 291 294 294 293 295 292 293 292 291 284 290 289 288 289 293 292 294 295 291 292 292 294 293 285 282 280 275 274 272 271 271 273 277 280 283 283 284 285 285 284 281 278 280 277 281 279 275 275 282 286 286 286 285 285 283 283 284 284 283 283 283 283 284 283 283
290 282 292 293 300 298 297 299 295 293 290 290 289 291 292 290 295 298 298 296 297 296 295 295 296 295 291 291 290 289 289 292 287 283 285 286 286 288 290 291 292 290 291 292 290 288 281 282 280 280 278 276 278 279 283 284 281 277 280 281 282 285 285 284 283 279 276 279 278 279 280 280 282 285 285 285 284 283 283 283 283 283 283 283 283 283 283 283
292 285 287 283 294 294 292 295 293 294 289 294 286 291 289 290 292 293 299 291 296 295 293 293 293 290 289 290 288 288 290 288 289 288 286 284 285 285 290 290 289 288 291 288 291 285 283 281 283 283 282 283 284 284 285 285 281 283 282 282 283 283 282 279 279 277 282 278 274 280 281 278 280 283 284 284 285 285 285 284 283 283 283 283 283 283 286 283
283 287 292 294 289 284 287 288 293 292 293 294 289 292 289 289 289 288 295 296 295 295 289 290 292 292 291 289 289 283 285 286 285 283 287 286 284 284 283 288 285 290 288 285 289 283 280 278 279 280 279 283 284 284 285 284 283 283 282 281 280 281 280 278 277 280 280 276 274 278 280 278 280 282 284 284 284 283 284 283 283 283 283 283 282 281 281 281
290 288 286 290 286 289 290 292 294 291 291 292 289 291 288 288 287 290 290 291 292 289 292 284 287 290 291 292 289 285 285 280 280 282 282 280 281 284 283 282 284 286 286 282 284 284 280 277 281 280 278 279 281 281 282 281 280 280 280 281 281 281 280 280 279 281 280 278 280 280 280 280 282 283 284 284 283 282 282 282 282 281 281 281 281 281 280 281
285 286 283 291 290 288 290 291 291 291 288 291 286 288 289 288 286 289 292 290 284 288 293 287 286 284 285 288 288 285 284 283 282 280 282 281 281 281 280 282 281 282 282 280 283 283 280 274 281 273 274 273 278 281 280 280 280 277 279 280 280 280 280 280 280 279 279 279 279 279 278 278 283 283 282 283 282 281 281 281 280 281 280 279 279 279 279 279
290 290 290 284 283 285 286 288 289 288 286 288 286 287 288 288 287 290 289 292 290 287 290 287 287 283 284 285 285 285 285 282 282 283 284 284 281 286 282 282 286 280 280 276 279 277 280 274 277 275 272 273 276 274 275 273 273 272 274 276 277 277 275 277 276 279 277 276 277 277 276 277 279 281 282 281 280 279 278 279 279 279 278 278 278 278 278 279
291 291 292 287 281 288 283 285 287 287 283 287 288 288 287 287 290 289 285 291 290 291 291 289 287 286 285 284 283 286 287 285 286 288 288 287 287 285 286 286 287 283 280 279 280 277 276 275 273 273 272 272 276 274 273 274 274 272 274 277 278 278 279 279 280 280 280 280 276 274 275 275 278 281 278 278 276 277 278 278 278 278 278 278 278 278 278 279
Wind_Speed
7 8 8 8 8 8 8 8 9 9 9 10 10 10 10 10 11 11 11 11 11 12 12 13 13 13 13 13 14 13 14 5 4 5 6 8 5 7 9 11 10 10 7 3 3 4 4 5 5 3 3 1 2 2 1 1 1 0 1 2 4 6 6 2 5 4 4 4 4 6 5 8 7 2 0 1 3 5 8 10 7 7 9 8 8 6 8 8
7 7 7 8 8 8 8 9 9 9 10 9 10 11 11 11 11 11 11 11 11 12 12 13 13 13 14 14 14 14 11 4 6 7 11 4 12 9 8 9 10 11 7 2 5 5 3 5 5 4 2 2 3 1 3 0 2 2 2 3 5 3 4 7 5 6 4 5 7 6 5 4 4 6 1 3 4 4 6 9 6 8 7 9 11 7 9 9
5 6 6 7 8 8 9 9 9 9 9 9 10 11 11 11 11 11 11 11 11 12 12 13 13 14 14 15 14 14 8 4 5 7 3 5 8 9 8 9 11 10 8 3 4 5 5 3 1 6 3 4 4 2 1 2 2 4 3 4 6 5 6 7 5 6 4 5 6 5 4 5 5 5 3 5 6 4 7 10 7 7 7 6 5 6 8 9
6 6 7 7 8 8 8 8 8 9 9 10 9 10 10 11 11 11 11 11 11 11 12 13 13 14 14 15 14 10 4 5 3 3 2 5 4 8 8 9 10 10 5 6 2 4 4 1 4 2 3 4 3 3 4 2 1 3 5 4 4 4 6 6 10 8 7 4 5 4 5 8 6 5 3 4 6 5 8 8 9 10 8 8 7 7 3 8
6 6 7 8 8 8 8 8 8 9 9 9 10 10 10 11 11 11 11 11 11 11 12 12 13 13 14 14 15 6 4 6 1 1 3 3 6 5 8 9 9 6 6 3 2 4 2 3 3 3 2 3 3 4 5 3 6 2 5 4 5 6 7 8 8 10 5 5 4 5 7 6 5 6 5 3 7 8 6 7 8 12 12 10 10 7 7 3
7 7 8 8 8 8 8 9 9 9 10 10 10 11 11 11 11 11 12 12 12 12 12 12 12 13 14 13 10 4 1 4 2 1 0 3 4 5 7 8 9 4 4 4 3 2 3 4 3 3 2 3 4 5 3 7 8 6 5 7 7 6 8 6 6 2 2 3 5 6 6 6 6 9 7 7 10 9 7 10 12 13 11 12 9 8 7 8
7 7 8 8 8 9 9 9 9 10 11 11 12 12 12 12 12 12 12 12 12 12 13 12 12 13 14 14 4 3 3 6 1 2 5 4 5 6 6 5 5 1 3 4 5 3 4 5 4 4 4 6 7 8 9 7 4 6 7 4 10 11 14 12 11 8 1 3 6 5 5 8 6 12 6 8 7 11 10 11 13 13 11 9 10 9 8 8
7 7 6 9 9 9 10 10 10 11 11 12 13 13 13 13 14 14 14 14 14 13 12 12 10 10 11 4 1 2 3 6 2 2 4 7 5 6 6 2 4 3 5 6 5 6 3 5 5 3 6 6 4 7 5 5 3 6 6 5 8 7 7 6 5 5 5 8 8 7 7 12 6 9 10 14 11 14 13 11 12 12 10 8 9 9 9 8
6 6 6 8 9 9 10 10 11 11 12 13 13 14 14 15 15 15 15 15 14 13 12 10 9 7 6 3 2 3 7 1 2 7 7 6 6 6 6 5 5 4 3 4 5 5 2 3 5 2 5 5 3 6 4 4 5 5 9 4 5 6 7 7 10 12 11 9 6 6 9 10 9 8 15 15 15 15 14 12 12 13 11 9 8 8 7 8
6 7 6 7 8 9 10 10 11 11 12 13 14 14 15 15 16 16 16 15 15 13 11 8 8 7 5 1 2 3 1 4 0 4 5 6 7 6 5 1 8 5 4 5 4 5 4 3 3 3 3 5 4 7 5 6 8 4 6 6 7 8 9 10 11 13 11 9 9 8 8 8 5 1 10 4 7 6 5 5 6 7 7 6 5 6 6 7
6 7 8 6 5 8 10 10 11 12 12 14 14 15 16 16 17 17 16 16 13 11 8 7 3 2 2 2 4 7 1 2 1 2 3 5 6 5 3 2 4 4 5 4 5 3 4 4 4 3 3 3 4 6 5 4 4 3 5 6 9 10 11 14 12 15 10 7 10 10 8 6 7 3 13 15 11 9 9 8 9 7 7 7 8 9 7 8
6 8 8 8 9 10 11 11 12 13 13 14 14 15 16 17 17 17 16 13 11 8 6 4 5 2 2 4 6 5 3 2 0 1 3 2 1 3 5 4 2 3 4 5 3 1 4 3 3 0 4 4 3 5 4 5 2 3 3 7 11 13 12 13 12 13 8 7 4 4 1 2 5 5 14 14 11 9 10 11 9 7 8 9 8 8 6 7
5 8 8 9 10 10 11 11 13 13 13 14 15 15 16 17 17 16 12 9 6 6 3 3 4 3 1 4 7 2 3 1 2 3 2 4 3 2 3 2 3 4 3 3 2 3 4 4 3 2 4 6 5 5 1 0 3 4 5 6 11 9 8 10 10 10 11 1 9 6 3 3 6 8 10 9 5 3 6 6 7 8 10 11 10 9 9 7
5 8 8 8 10 10 11 12 12 12 14 14 15 16 17 17 15 10 7 7 6 4 3 4 3 3 1 6 2 3 2 2 3 2 3 2 3 1 1 2 1 2 3 2 3 3 2 3 3 3 4 6 4 5 10 4 4 6 7 4 6 7 5 7 6 4 1 2 5 4 4 3 6 12 10 4 3 5 5 5 7 11 13 14 11 7 7 7
5 6 8 8 10 10 10 10 12 13 14 15 16 16 17 14 8 6 5 7 1 2 6 2 2 2 2 4 4 2 3 3 3 3 2 1 2 2 2 1 1 1 1 2 1 1 2 0 0 1 3 4 6 6 6 4 3 5 5 3 2 6 3 6 7 5 2 1 3 5 4 8 7 5 7 8 6 9 12 11 13 15 14 15 11 7 6 7
5 5 6 8 8 8 10 11 11 14 16 17 16 17 13 6 3 3 3 4 3 2 3 2 3 2 4 7 1 1 0 2 4 2 2 3 1 1 4 3 1 1 2 1 1 0 1 0 2 1 2 2 3 4 5 4 3 5 7 5 6 4 6 5 2 6 6 3 3 9 6 3 4 4 4 6 11 9 12 14 15 15 14 14 10 8 6 6
5 7 7 8 10 10 10 11 12 13 14 14 16 14 8 3 3 1 2 2 2 2 2 2 2 4 4 1 3 2 3 1 2 1 1 0 2 3 4 3 2 2 0 2 1 1 1 2 1 1 1 3 3 3 4 3 6 5 5 7 4 5 5 4 4 2 1 5 3 8 7 6 9 7 9 10 8 8 10 14 14 13 11 10 10 7 5 5
5 6 9 8 10 11 11 12 14 15 16 17 19 17 9 2 1 4 3 2 2 2 4 4 4 2 6 2 6 1 3 4 1 2 2 1 1 1 3 2 2 3 3 2 1 3 3 2 3 2 1 4 4 3 4 7 4 3 4 7 7 5 5 7 6 3 10 3 9 7 11 10 7 5 6 8 9 13 15 14 11 10 12 14 10 7 7 6
4 6 9 9 9 10 11 11 15 16 16 20 20 7 3 1 2 3 4 3 1 1 1 3 3 5 1 1 4 6 1 3 4 2 2 3 1 2 1 1 3 6 3 3 3 5 2 1 2 1 3 4 8 9 10 10 7 9 8 8 8 8 6 7 7 9 8 10 9 7 10 10 8 7 7 9 11 14 13 9 11 11 9 8 8 5 6 8
6 8 11 10 8 9 10 11 15 16 17 14 9 2 3 2 1 2 3 5 6 7 9 6 8 9 12 12 2 2 1 3 3 0 4 1 3 3 4 3 2 3 2 2 4 5 5 4 4 5 7 11 11 12 12 11 10 10 9 7 7 7 6 7 10 9 5 7 5 6 6 7 9 9 12 14 13 11 9 10 12 10 5 4 5 6 10 15
7 9 11 8 7 8 9 12 12 12 14 8 8 6 3 5 4 2 5 7 9 11 13 13 13 13 12 3 5 3 2 3 3 3 3 3 2 6 4 4 3 3 6 7 6 0 1 4 6 10 12 13 12 9 8 9 8 9 7 6 8 4 10 6 9 7 8 2 2 4 6 5 7 12 19 16 9 10 9 9 11 7 3 6 8 10 11 10
8 10 9 6 7 8 10 10 11 10 12 6 3 6 3 4 1 1 2 6 4 8 10 12 12 13 9 11 4 1 5 3 4 4 1 3 5 4 6 6 7 5 6 6 5 1 3 7 9 14 13 10 9 8 8 8 8 5 5 4 5 7 8 9 10 5 1 3 6 5 7 6 10 18 18 14 10 9 10 8 5 9 12 9 10 9 13 14
9 8 7 7 7 8 9 9 9 8 6 4 3 7 3 2 2 2 0 5 10 11 11 12 13 13 11 4 3 2 4 8 7 7 7 3 5 5 4 6 6 6 3 8 6 4 4 6 18 14 9 8 7 7 7 8 5 4 4 4 7 5 5 3 2 6 8 4 6 7 10 6 12 17 17 11 8 7 2 11 13 12 13 13 14 13 13 13
9 8 8 7 7 8 8 9 10 7 3 1 2 3 1 2 3 2 2 4 6 8 2 1 2 3 2 2 2 1 6 4 6 7 6 5 5 5 3 7 6 5 7 8 9 7 8 6 2 2 2 5 7 5 5 4 5 3 5 5 5 5 5 6 4 6 5 6 6 4 4 4 11 4 3 4 5 3 8 12 15 13 11 10 12 14 13 13
9 8 8 7 5 5 7 7 4 1 2 2 3 1 3 2 2 2 2 4 4 6 1 2 2 1 1 2 1 2 4 2 2 2 3 1 4 5 4 3 4 6 5 6 8 8 10 9 7 4 3 3 3 4 6 4 4 5 6 8 7 5 5 4 6 7 4 3 1 3 5 3 5 6 9 8 6 2 8 14 9 12 10 11 11 11 11 11
7 6 6 5 5 4 3 3 1 2 4 2 3 2 2 2 2 1 2 3 5 1 2 3 0 2 2 2 2 2 2 4 3 1 2 2 2 1 2 2 3 3 3 2 6 3 4 3 2 2 3 2 2 4 6 1 5 2 3 1 1 1 2 3 4 4 3 1 3 3 1 7 2 8 7 10 8 6 8 11 8 7 10 10 10 10 10 10
5 3 2 3 6 3 2 2 2 3 2 2 1 2 1 1 2 1 1 2 4 2 3 3 1 0 2 1 1 0 3 1 1 1 0 1 1 2 2 1 2 1 0 1 4 3 4 3 3 1 1 3 3 6 5 7 4 4 1 1 1 1 2 3 2 2 6 4 5 4 5 7 6 3 10 11 10 10 10 7 8 7 9 12 10 10 10 9
8 6 4 1 4 7 1 3 3 1 2 1 1 1 2 1 1 1 1 4 3 1 1 1 1 2 2 1 2 3 3 3 2 1 3 1 1 2 0 3 2 2 4 2 4 0 1 3 2 2 3 3 6 6 1 6 5 2 0 3 1 1 2 2 2 4 4 5 7 5 6 1 5 4 9 9 1 11 7 7 6 7 10 11 11 9 9 10
8 7 6 1 3 5 2 1 2 1 2 1 0 2 0 1 2 1 1 2 0 1 2 2 2 0 1 1 2 3 1 2 2 2 1 0 0 1 3 6 2 3 2 6 5 1 1 2 4 5 5 6 6 4 2 6 5 0 1 0 0 0 1 3 3 3 4 1 9 2 6 4 7 7 8 2 6 8 7 6 6 6 9 9 10 10 8 7
7 8 7 6 5 3 1 1 1 1 1 1 2 1 1 1 1 0 2 6 3 0 2 1 1 2 3 3 2 4 4 2 2 2 2 1 2 1 1 1 2 2 2 3 6 8 2 0 2 1 5 4 2 1 3 4 2 1 0 1 3 3 4 3 2 2 1 4 9 9 11 9 3 3 3 2 3 9 9 6 7 8 9 9 9 9 8 8
7 7 9 7 1 1 2 2 2 1 1 1 1 2 0 2 1 1 7 1 2 1 2 1 1 1 4 4 2 5 3 3 3 4 2 0 2 2 1 1 0 1 1 2 5 9 4 2 1 3 4 0 3 1 2 1 0 1 1 1 4 6 2 1 1 3 0 5 2 3 9 10 5 3 2 4 4 9 12 11 9 9 8 9 6 7 8 8
7 8 7 4 2 2 1 3 2 2 1 1 2 1 1 1 2 7 3 4 1 2 1 1 2 2 4 2 2 3 3 4 4 4 5 4 3 4 5 2 3 0 2 2 5 1 1 6 5 2 2 6 1 0 0 1 1 2 1 1 1 3 2 2 3 1 5 6 2 3 3 2 7 5 7 4 7 7 6 9 11 11 10 9 8 7 7 6
7 6 3 2 2 0 2 1 2 2 2 0 1 1 1 2 7 7 4 1 2 2 1 3 1 3 1 0 3 3 2 2 5 5 5 4 4 5 6 6 3 2 4 0 4 5 4 1 4 4 3 4 4 5 2 1 3 4 4 4 2 1 2 4 4 4 3 0 1 3 3 1 2 4 2 6 10 10 12 12 11 11 10 9 8 6 5 5
5 4 2 1 1 2 1 1 2 3 2 1 2 3 3 4 5 5 3 7 5 1 3 1 0 1 1 3 1 4 1 3 4 4 5 3 4 2 3 8 7 4 3 4 5 3 7 6 3 5 3 6 6 8 6 1 6 8 3 8 7 5 1 4 3 5 4 4 0 0 3 5 2 2 5 10 10 11 11 11 10 10 9 8 7 5 5 5
2 2 1 1 1 2 2 0 2 4 1 2 2 2 4 9 0 2 2 2 3 3 2 4 1 0 3 2 2 2 2 2 7 3 5 3 3 3 2 3 4 6 3 5 3 2 8 9 1 4 1 4 7 4 1 1 1 3 2 0 1 6 1 8 3 3 2 3 5 1 4 2 1 5 7 8 11 11 8 10 8 8 7 6 6 5 5 4
1 1 1 1 1 2 5 2 1 2 1 4 3 4 11 6 2 3 3 2 3 3 3 1 1 3 5 5 3 5 4 4 1 1 2 4 4 6 4 2 4 6 5 7 1 2 1 3 1 2 3 1 1 2 0 1 2 1 3 4 4 1 1 3 4 4 1 3 9 4 5 6 1 6 9 7 11 9 8 7 7 6 5 4 5 4 4 3
1 1 1 2 2 4 6 5 3 1 0 3 4 10 6 3 9 6 3 2 1 4 2 5 3 5 3 3 3 8 3 1 2 1 2 0 5 9 7 4 6 2 1 1 2 2 2 2 1 3 3 0 1 1 2 2 1 5 1 4 1 1 2 1 3 1 3 7 7 5 7 6 2 4 4 5 11 5 6 6 5 6 4 5 4 3 3 3
1 1 2 3 3 7 7 7 5 1 2 4 11 13 2 6 6 12 1 1 2 3 3 4 3 3 5 8 6 1 2 2 2 4 2 4 4 2 2 2 4 2 3 3 1 2 4 5 5 0 3 1 2 1 3 2 3 4 3 1 1 2 3 2 1 3 4 6 4 4 8 8 7 6 6 2 8 7 6 5 4 4 4 4 3 3 1 2
0 1 3 0 5 9 8 8 4 7 5 8 11 11 8 13 7 5 4 7 2 3 6 6 6 3 6 7 6 1 8 4 3 4 2 3 4 2 2 2 0 2 3 1 1 2 1 2 2 1 1 2 0 1 2 0 2 1 2 2 2 1 3 3 3 3 3 7 4 5 7 6 1 3 4 6 7 6 7 4 4 4 4 4 3 3 3 2
2 1 3 2 2 6 7 8 6 7 8 13 11 11 4 2 10 16 11 4 2 5 5 6 5 8 8 9 5 6 4 7 5 4 2 2 3 3 3 6 2 1 4 2 1 1 1 1 4 1 1 1 2 3 5 4 3 1 1 2 1 1 1 1 1 4 5 5 5 6 5 5 1 3 4 7 7 6 6 6 4 3 4 3 3 4 3 3
1 1 1 1 4 6 8 6 9 15 14 8 11 9 8 7 1 2 3 4 0 3 3 3 5 9 6 6 11 7 4 4 4 4 3 3 5 4 3 3 4 2 1 2 0 1 0 2 5 3 4 3 4 0 3 3 2 2 2 2 1 1 4 6 10 2 3 5 7 8 11 3 1 2 5 6 5 6 6 6 5 4 5 4 3 2 3 4
3 3 1 3 6 9 11 12 8 4 4 11 12 9 6 6 4 3 1 1 3 1 2 2 3 2 0 5 3 1 1 2 3 3 3 5 2 2 1 4 3 1 1 0 1 1 2 0 1 6 5 7 6 8 9 5 4 4 5 4 3 2 1 1 8 5 4 2 0 2 6 4 1 0 5 4 5 4 5 6 6 5 5 5 4 3 3 4
4 1 2 4 4 10 8 6 6 7 10 10 4 4 5 2 2 3 4 4 2 4 3 4 5 5 6 5 3 4 3 3 2 4 1 1 1 5 1 2 0 1 2 1 1 2 5 1 2 5 6 8 11 8 5 1 1 2 3 3 3 4 3 6 6 1 3 4 8 5 8 1 1 1 2 5 4 4 3 5 6 5 4 4 5 4 4 3
3 3 2 2 4 6 7 9 10 12 10 6 7 8 6 6 5 4 7 6 4 3 6 4 4 10 6 5 4 8 5 6 4 8 6 5 2 4 7 5 5 1 1 2 1 5 0 4 2 1 2 4 6 4 0 4 4 3 1 3 3 4 4 1 0 2 3 6 12 10 8 4 1 1 3 2 4 3 3 1 4 4 3 3 2 2 1 2
1 0 2 3 4 6 11 7 6 7 10 10 9 11 9 7 8 9 6 7 5 6 2 4 5 3 5 4 4 1 0 2 1 3 2 1 2 1 5 5 6 4 4 2 3 3 2 2 0 1 4 6 6 4 3 1 1 2 1 2 3 2 4 5 4 2 5 1 5 0 4 5 2 3 4 2 2 1 0 1 1 3 4 4 3 2 2 1
4 2 3 1 5 7 6 5 4 4 5 9 10 10 10 10 7 7 8 7 6 4 6 3 1 1 1 1 2 2 5 2 4 2 1 0 1 1 1 7 7 3 2 3 4 1 1 1 1 4 6 9 8 4 1 3 1 3 6 6 9 9 7 6 5 7 10 5 9 8 12 11 13 11 7 4 6 4 5 5 6 5 4 4 4 2 2 1
3 2 4 4 4 8 6 6 9 6 4 3 7 5 11 12 7 5 11 5 7 8 4 6 4 4 3 5 5 5 5 5 5 5 6 2 1 1 4 5 6 4 2 2 3 2 1 2 5 5 6 8 9 10 10 9 9 9 9 11 10 9 6 5 7 8 3 7 13 9 11 9 9 10 8 7 5 5 5 6 5 4 4 4 4 3 2 0
3 4 1 4 5 6 11 9 12 10 10 6 5 4 8 9 9 8 3 3 0 3 3 3 9 10 6 6 4 5 4 6 4 6 4 4 3 1 2 0 2 3 3 1 0 2 2 4 4 3 3 6 6 9 8 9 8 8 10 10 12 12 9 12 8 5 4 10 14 12 13 14 12 12 12 8 6 1 4 4 4 3 4 4 3 1 2 3
3 3 3 5 1 4 12 5 8 14 12 9 4 4 7 8 9 7 4 4 4 3 7 5 7 8 11 10 6 4 4 3 4 1 1 1 1 2 2 1 0 3 0 1 0 1 1 3 5 3 7 9 11 11 7 8 7 8 10 12 13 15 17 11 8 9 11 10 10 11 11 14 12 12 12 8 2 3 3 4 3 3 3 4 3 4 3 3
2 2 2 0 1 3 3 6 7 10 12 11 7 11 6 5 8 4 1 4 3 4 5 7 5 4 3 2 3 7 2 0 2 3 0 4 1 2 1 0 2 1 1 1 2 3 2 5 5 2 1 4 7 5 3 7 8 9 9 11 13 14 12 9 11 10 9 11 12 14 15 17 13 9 4 2 3 3 2 2 2 1 4 3 2 1 1 1
1 3 0 4 2 3 2 2 6 8 7 8 11 11 5 6 10 6 2 3 2 4 5 8 3 3 1 2 1 0 2 5 3 3 2 3 5 0 4 3 5 2 2 1 0 2 0 3 4 1 5 8 8 4 0 2 2 2 10 17 18 14 13 13 12 7 10 12 11 11 12 12 2 2 1 2 3 3 1 2 2 3 4 3 1 1 1 1
2 2 1 2 2 3 5 3 3 5 10 10 7 8 8 8 7 3 4 2 3 3 2 6 6 5 1 2 2 2 3 5 3 2 2 2 2 1 0 1 1 4 2 4 1 3 3 1 1 2 5 8 7 6 2 3 3 8 17 22 15 14 15 13 12 14 14 12 11 11 12 3 3 3 3 1 3 1 1 2 3 3 2 0 1 2 2 1
Wind_Direction
21 19 15 12 10 7 7 4 0 1 360 358 354 353 354 354 351 349 351 351 347 347 346 341 343 340 333 333 334 334 329 302 297 261 243 244 131 131 100 117 144 154 165 167 197 156 189 208 215 150 210 94 183 248 97 189 264 138 212 193 257 243 264 316 334 341 355 330 331 337 343 337 325 349 145 346 223 237 260 261 257 241 247 236 233 180 153 151
15 10 7 1 0 360 358 356 357 354 354 352 352 349 349 347 346 345 347 347 345 341 342 342 338 336 333 330 333 335 325 277 273 261 253 12 119 118 118 131 140 164 162 217 186 203 219 192 212 158 207 223 140 210 127 247 131 196 263 239 250 267 279 331 317 305 343 318 332 311 305 334 315 354 315 286 282 299 303 282 291 287 264 247 236 154 154 157
5 360 357 355 352 355 353 350 350 351 347 348 352 345 343 341 341 341 343 343 340 341 338 339 338 332 329 329 328 330 333 294 267 274 51 349 112 116 128 141 158 167 178 190 194 231 244 317 240 169 211 264 152 192 142 198 156 217 225 253 259 268 281 285 305 315 328 318 295 313 329 346 311 306 290 254 270 268 265 280 298 284 281 283 298 167 174 169
353 347 351 350 346 348 349 346 345 344 346 345 341 340 336 336 334 337 337 337 336 336 337 335 333 331 325 324 328 320 290 280 283 90 57 82 104 118 137 157 169 183 234 285 300 249 276 335 297 191 269 237 259 193 149 184 116 189 193 229 256 283 315 313 313 302 302 331 324 324 326 308 290 278 306 296 303 247 250 249 255 272 288 312 315 325 170 196
347 344 345 343 347 343 341 342 338 340 342 336 335 332 334 330 330 331 332 330 331 331 331 332 330 324 325 319 320 306 319 296 101 55 100 92 111 131 146 158 175 190 222 262 279 280 269 256 240 244 227 277 247 251 216 217 181 313 246 256 274 298 290 292 296 314 10 2 311 297 297 288 310 289 269 258 248 258 253 274 280 283 289 292 301 308 313 260
336 337 339 341 343 343 338 336 339 336 334 333 332 332 330 330 331 327 329 328 325 327 329 328 328 326 319 319 311 274 292 314 183 135 242 124 123 137 151 162 178 213 218 254 240 214 227 228 244 217 235 229 248 251 236 215 176 244 236 249 242 252 262 270 284 321 66 320 302 291 279 311 297 289 279 272 260 267 257 263 263 266 272 275 284 290 287 279
330 330 334 339 337 338 337 333 335 334 333 332 332 331 328 328 326 326 322 326 324 325 326 328 325 324 322 307 256 281 252 270 263 180 127 163 136 138 145 146 167 234 243 231 225 207 211 247 207 248 247 251 248 249 251 265 241 216 261 298 295 296 282 286 282 310 236 261 267 260 299 278 290 289 288 269 266 271 276 277 280 284 280 277 279 278 266 268
329 331 329 336 333 334 334 333 334 334 334 331 331 329 327 325 325 323 324 321 323 323 325 323 330 320 338 314 257 230 207 256 58 141 129 131 137 124 127 149 159 212 218 222 208 217 215 236 241 249 255 254 277 281 313 303 293 280 259 245 258 255 271 286 298 272 276 273 274 271 272 267 270 274 298 276 275 272 270 265 270 270 271 270 264 263 262 256
323 315 329 328 329 329 331 332 332 333 331 331 329 327 325 324 322 322 319 319 319 318 319 323 315 327 313 286 270 292 249 35 339 130 159 147 135 146 158 138 205 192 222 237 244 250 245 230 250 258 290 287 288 302 322 337 261 218 253 316 319 313 311 305 304 293 287 287 263 263 254 272 272 290 272 272 266 257 256 258 255 257 260 253 251 249 247 251
309 312 321 318 315 326 328 330 330 329 329 329 326 324 321 320 318 317 316 315 314 316 311 319 320 302 315 212 250 252 250 230 204 150 143 133 127 144 228 177 171 210 232 225 250 247 238 267 304 54 14 314 289 274 288 255 264 334 345 324 319 298 298 282 268 274 264 259 265 259 262 259 254 262 278 255 258 271 276 270 266 276 276 275 274 274 272 259
302 308 312 310 316 327 327 328 328 327 329 328 326 323 321 318 317 315 315 313 313 310 312 291 25 330 220 181 248 250 115 287 302 83 123 118 146 157 197 238 171 227 231 249 244 269 285 295 22 14 2 265 347 285 262 283 322 353 339 330 291 282 269 270 267 262 260 255 243 237 252 268 276 244 257 273 268 270 283 280 286 273 257 255 260 260 254 257
311 308 313 316 325 326 328 328 327 328 327 327 325 323 320 317 315 314 313 314 309 307 300 294 184 241 292 238 238 239 318 33 129 108 109 182 91 59 3 12 326 249 256 254 229 353 24 37 32 1 243 50 268 309 282 359 348 342 19 303 281 278 274 266 260 259 249 248 192 124 138 280 261 233 245 250 265 265 250 255 253 264 273 266 260 263 258 247
316 308 312 319 323 325 326 324 323 325 324 325 323 320 318 315 314 313 314 313 311 309 307 237 162 247 264 255 231 61 288 106 77 101 88 70 92 43 31 14 346 357 25 349 27 353 360 25 31 293 274 287 296 275 177 200 291 276 247 244 274 278 268 267 257 239 233 260 116 95 299 175 243 254 260 255 244 318 320 310 301 285 275 273 272 273 272 273
312 309 307 310 322 322 320 318 321 321 322 322 320 317 315 315 313 312 313 303 304 298 149 150 232 219 249 254 67 277 12 316 138 150 108 145 131 71 175 54 340 339 37 346 67 14 24 27 27 279 298 282 277 352 321 296 289 272 267 249 266 299 275 275 258 102 162 103 128 85 241 225 278 266 264 290 333 293 281 283 278 274 273 275 275 271 274 273
293 297 297 310 315 313 306 309 318 321 321 319 319 316 313 312 311 313 328 310 76 338 153 206 246 215 201 254 79 90 283 316 186 99 80 204 151 133 173 163 76 343 25 32 39 306 47 118 121 244 253 226 241 265 275 275 245 248 292 233 230 204 257 268 294 138 210 205 199 109 245 244 233 277 327 316 326 316 301 293 283 278 277 279 286 291 281 271
285 301 304 302 292 287 282 290 300 312 316 318 316 314 303 289 275 306 9 340 3 122 152 207 185 258 318 276 171 51 217 202 144 45 45 355 306 0 115 109 99 104 239 81 37 290 286 133 205 268 285 246 234 239 262 296 250 236 222 259 264 256 259 279 261 139 205 94 243 159 237 259 262 260 267 295 286 273 273 275 271 270 275 283 293 293 291 306
251 262 278 277 283 288 294 296 301 306 310 315 317 311 299 231 240 237 324 300 200 204 243 334 134 172 284 73 81 235 158 80 269 133 95 45 7 135 114 123 161 141 90 104 212 147 182 177 129 22 229 258 253 276 309 250 277 252 217 244 230 270 316 283 342 254 121 139 213 222 246 227 244 242 252 257 261 260 257 260 265 279 285 287 286 294 307 302
270 282 280 284 287 295 297 304 307 316 321 322 322 301 297 236 224 299 202 212 208 218 252 231 252 285 239 114 270 226 89 112 123 128 65 0 289 208 167 186 106 149 157 145 107 205 142 214 163 239 193 207 237 234 208 246 228 272 300 297 289 287 289 298 301 298 308 277 286 287 272 284 291 311 320 302 288 280 271 275 280 284 285 288 298 311 324 20
266 289 284 288 291 296 302 304 311 320 324 322 307 303 304 300 289 266 273 164 218 183 192 166 217 183 2 305 124 102 101 129 105 177 156 152 230 234 198 320 156 153 172 199 182 182 159 246 144 297 242 216 216 214 218 235 249 266 273 275 288 291 289 281 279 288 281 283 280 277 284 301 313 314 285 278 268 266 273 287 287 272 273 284 300 5 43 37
296 280 278 285 295 298 299 305 312 318 328 328 334 332 226 243 193 170 221 217 236 253 291 289 216 269 296 299 62 39 57 249 144 355 108 279 142 174 184 198 171 242 210 210 138 214 142 181 181 192 217 227 230 224 231 243 248 259 261 267 274 285 287 284 277 286 285 297 278 294 303 310 307 297 289 272 272 277 288 277 272 267 260 292 39 55 51 61
242 262 274 282 297 301 304 311 312 318 319 313 304 295 354 1 321 314 345 275 261 256 259 263 259 263 264 282 153 165 219 207 244 164 199 168 216 158 180 186 157 212 216 222 154 63 124 216 223 217 222 231 240 253 263 274 281 285 295 297 290 292 278 266 297 294 287 282 294 295 298 293 295 290 276 277 286 280 262 261 257 277 2 36 49 46 64 72
247 248 264 290 295 304 310 310 313 313 307 281 281 328 48 51 317 314 287 292 293 273 259 252 256 256 252 267 95 66 101 284 196 142 158 187 177 207 162 194 181 211 193 196 75 109 191 221 239 234 232 243 255 262 265 271 274 281 284 305 305 274 273 281 266 269 10 20 281 311 301 294 291 273 272 277 273 265 259 258 342 51 55 52 46 51 62 55
247 256 273 284 293 297 304 304 300 313 317 328 348 12 55 340 6 305 292 274 265 256 247 248 247 242 245 240 106 131 230 222 246 169 172 199 149 236 161 185 224 223 238 173 185 164 229 218 241 244 241 254 258 252 264 270 270 266 281 280 253 272 301 306 269 357 345 357 294 289 286 286 274 270 271 271 249 255 320 50 69 64 66 61 53 52 57 57
242 253 265 275 287 296 305 305 299 282 227 322 356 67 37 348 328 329 278 252 299 275 253 317 282 331 281 228 107 294 219 248 214 207 152 173 187 177 235 217 222 235 230 208 213 229 231 251 312 22 268 221 248 265 273 280 279 252 226 233 263 271 260 259 309 345 328 295 285 311 288 269 257 285 303 241 237 246 70 75 65 63 62 68 69 62 53 53
243 254 261 268 265 290 290 313 287 254 33 268 122 75 56 6 343 3 286 281 212 247 73 256 39 277 121 96 89 201 204 255 68 64 164 255 204 118 238 214 218 237 243 232 236 240 259 264 260 243 231 275 289 281 255 237 285 273 257 246 253 277 303 346 338 352 345 306 348 24 338 229 268 342 321 284 286 297 72 84 73 74 75 67 67 69 68 60
231 235 242 236 236 239 303 283 148 10 292 41 60 57 23 37 314 338 294 277 286 209 0 179 215 226 24 159 100 243 3 201 27 70 0 89 23 265 48 257 178 230 249 246 240 229 264 59 57 173 213 210 232 254 256 222 241 239 259 104 337 5 338 315 332 34 301 247 252 36 357 280 221 273 263 264 251 90 83 77 79 85 85 79 72 65 62 66
89 73 102 200 202 168 229 228 5 317 248 109 39 42 47 357 291 333 271 243 270 144 138 350 359 218 49 88 163 94 210 146 165 74 198 18 282 151 274 162 82 289 179 326 40 278 194 203 67 9 153 206 237 246 241 194 197 251 172 307 37 355 325 308 314 209 244 264 267 247 195 254 285 242 262 253 243 109 90 84 88 87 85 80 73 67 67 59
56 45 19 233 202 193 335 324 295 316 48 72 61 52 86 247 0 235 235 317 263 104 126 167 9 298 339 119 276 263 55 132 142 154 34 48 327 134 185 238 205 215 162 128 203 1 172 173 147 160 184 197 213 221 228 175 176 211 208 41 11 47 317 321 264 258 259 315 288 186 195 284 246 247 242 236 220 95 93 96 91 85 82 76 71 58 58 64
58 29 9 336 174 204 330 6 342 40 206 49 61 59 283 263 248 315 324 269 305 144 318 69 330 152 115 235 205 254 170 196 302 102 357 144 10 4 195 252 301 311 163 179 222 214 351 132 191 183 152 208 227 243 285 169 224 104 185 118 127 192 245 212 233 271 301 239 267 210 177 214 282 260 271 144 109 121 121 106 85 72 68 72 80 77 51 45
41 32 5 2 142 129 140 85 229 134 63 51 66 216 79 238 60 265 180 237 48 297 69 140 130 174 175 184 207 178 216 170 83 113 192 222 146 12 247 142 297 334 288 245 242 246 234 140 43 215 206 225 115 98 51 32 74 155 328 356 297 247 227 228 202 229 301 245 256 231 204 175 295 277 253 125 145 140 123 108 110 85 77 59 53 65 66 52
46 30 13 336 168 37 143 186 130 110 137 126 176 216 252 58 219 215 230 230 346 214 111 163 147 26 185 225 215 165 249 151 139 151 146 228 131 234 289 325 11 348 350 309 277 263 236 87 108 248 247 1 112 71 1 111 14 73 41 23 347 300 215 117 249 144 150 268 257 291 181 184 177 291 60 63 69 130 145 149 129 103 82 83 64 52 57 52
43 32 16 23 318 294 242 154 158 153 145 212 252 303 346 260 198 210 207 91 262 181 178 116 128 185 213 233 345 163 201 181 160 195 184 179 162 171 201 196 155 336 277 202 275 68 235 214 211 206 255 184 161 347 49 59 101 110 119 21 335 297 12 275 95 317 217 239 261 13 52 213 234 251 303 323 65 53 87 102 109 105 94 77 69 61 54 51
34 22 10 35 321 124 80 114 131 132 134 131 214 41 64 188 247 183 234 158 273 104 169 31 139 182 217 195 244 206 79 230 160 198 220 184 181 214 197 206 209 171 264 9 311 321 252 179 176 202 26 216 148 162 217 348 207 142 172 161 128 282 221 248 240 214 244 198 328 74 46 235 267 266 266 74 66 64 68 71 79 88 89 85 80 66 52 53
33 4 41 74 16 4 335 351 137 158 126 144 93 68 79 234 231 18 218 203 232 150 101 150 27 270 264 230 318 150 291 239 168 197 178 180 185 245 229 213 218 263 227 269 238 220 290 283 230 146 244 160 186 205 183 201 153 202 196 152 180 180 212 261 240 241 225 220 238 295 25 226 150 231 103 104 86 82 77 82 83 85 87 89 88 85 68 51
11 11 21 290 239 188 173 85 189 192 252 117 89 120 212 236 100 228 249 296 315 285 235 94 270 289 243 236 249 256 201 260 198 197 180 202 223 211 216 243 234 204 186 260 210 196 218 241 284 142 322 145 175 246 11 40 19 199 204 89 28 228 175 247 253 277 305 328 311 224 194 241 332 124 100 97 94 84 85 88 91 86 90 98 89 79 72 60
223 102 109 240 210 167 160 168 182 232 220 120 127 206 225 191 200 158 232 292 277 259 300 119 138 243 262 265 208 227 159 198 144 103 252 217 255 266 255 227 236 199 185 195 258 290 200 266 110 303 32 126 185 351 121 130 181 307 76 197 211 4 33 306 318 261 293 311 254 243 285 279 246 116 87 98 92 83 89 92 89 91 98 92 82 75 76 69
61 79 208 187 224 156 162 159 153 190 239 147 182 241 218 253 231 292 325 283 291 347 322 261 219 190 225 239 217 209 222 67 264 151 252 118 279 226 234 237 57 356 299 103 303 267 214 253 141 165 249 309 236 357 359 357 99 78 138 243 324 222 112 182 248 256 247 240 263 253 268 277 266 266 130 93 92 102 82 94 88 94 90 79 79 87 84 88
20 215 281 243 190 151 158 156 149 106 107 175 218 236 105 247 195 225 232 257 279 221 266 211 237 246 262 277 271 351 71 175 192 167 253 172 266 85 33 162 0 1 13 13 133 278 50 313 245 246 99 287 46 341 335 231 192 180 204 22 94 259 314 266 120 253 254 248 275 203 254 255 248 237 137 151 118 123 127 115 121 104 98 100 105 87 80 69
260 253 262 148 143 157 151 155 157 149 155 213 227 252 230 242 255 246 229 227 233 225 223 225 252 223 259 255 271 108 167 184 203 214 112 208 221 145 144 71 298 18 19 44 86 327 347 226 308 69 41 186 80 115 249 292 343 37 80 330 180 112 209 258 186 227 186 262 271 257 257 256 271 1 99 127 123 130 128 134 117 143 134 134 162 146 159 167
213 145 238 66 274 139 149 148 147 170 195 214 223 224 223 266 226 229 235 198 214 192 223 254 220 259 244 257 256 248 197 205 209 249 184 229 242 34 53 17 119 86 57 54 53 18 342 202 244 176 160 72 323 166 219 197 225 304 56 289 330 244 199 129 352 236 231 265 240 283 258 264 331 322 93 116 131 142 146 146 161 146 145 139 167 169 170 166
262 287 199 213 165 150 139 145 173 194 205 232 233 236 224 234 88 22 108 108 272 239 258 230 236 233 242 248 244 236 253 241 230 231 219 263 236 282 23 21 344 89 8 14 27 315 356 314 246 332 328 230 229 172 109 65 61 136 151 237 209 347 302 258 258 199 218 220 248 242 256 244 92 308 116 118 137 135 146 152 156 168 168 172 171 176 166 166
187 190 154 154 174 171 153 167 215 200 226 218 217 205 231 221 241 195 104 186 199 249 169 231 245 257 215 267 301 286 313 237 238 255 203 226 230 255 144 262 18 52 39 240 92 200 119 131 34 268 246 258 270 286 295 305 275 166 139 219 190 133 121 311 263 259 291 228 45 252 281 227 119 50 105 118 108 113 126 141 152 151 151 146 149 155 176 165
208 215 23 278 206 187 168 216 208 206 220 236 271 276 242 254 222 181 182 175 207 188 239 232 228 258 238 249 283 283 263 256 199 228 267 286 315 42 147 61 290 240 41 278 159 71 65 151 205 259 255 266 270 271 273 303 143 262 234 237 192 222 204 220 236 264 249 268 270 247 248 228 201 339 101 112 139 125 146 148 151 144 129 143 150 163 180 157
218 175 167 224 238 222 201 194 204 211 227 241 227 242 227 241 215 213 229 211 192 183 212 219 238 220 256 235 233 243 212 262 219 237 256 227 214 54 30 21 357 70 346 279 92 250 98 283 155 257 294 299 289 285 329 360 38 59 27 316 359 331 353 322 302 162 241 196 235 246 247 238 272 190 298 118 126 148 160 85 119 131 141 152 161 180 190 189
197 30 87 156 195 230 210 221 235 209 217 221 222 232 227 232 234 240 224 220 215 236 242 235 234 238 234 222 250 20 340 260 4 293 108 356 100 57 12 23 357 97 41 351 66 350 121 241 73 201 234 254 254 250 250 85 69 291 246 301 304 315 300 334 305 308 269 203 69 241 275 256 209 192 236 191 157 127 63 167 121 164 172 178 186 202 197 201
199 190 167 98 197 234 266 301 332 272 239 211 225 229 228 238 232 215 221 246 223 224 233 281 332 67 254 313 246 243 247 200 165 260 56 220 121 39 40 43 53 85 53 45 7 39 138 331 176 207 223 243 253 282 141 128 127 319 297 292 282 284 274 265 272 261 266 296 284 264 267 283 288 280 266 228 170 202 213 201 199 190 189 171 166 178 183 180
307 237 167 191 177 235 245 227 233 231 228 238 235 200 225 226 234 242 175 233 200 220 221 225 229 222 216 219 233 243 227 245 230 224 233 205 98 103 60 76 71 62 143 63 309 70 177 214 237 240 242 253 270 278 291 308 290 276 271 271 276 269 265 250 229 255 343 321 267 257 270 277 271 284 294 304 300 263 209 200 195 175 166 166 178 175 188 306
187 256 237 173 200 197 217 226 222 228 241 275 281 249 231 226 215 224 156 205 87 192 198 241 225 233 233 218 207 232 226 238 218 234 223 213 148 180 62 187 95 166 134 93 110 126 156 248 254 258 247 263 262 271 284 289 284 277 271 274 272 272 265 254 255 252 232 238 260 270 277 277 276 273 281 285 294 260 157 152 132 131 139 147 139 158 204 223
265 343 287 297 255 205 211 208 189 217 233 236 267 271 259 238 230 219 199 169 204 218 201 225 230 222 229 232 234 247 223 231 250 233 191 75 74 162 146 41 324 145 307 75 5 192 105 271 255 239 260 265 265 265 268 273 281 284 275 269 267 264 263 264 266 247 239 250 259 267 272 273 278 282 295 299 160 108 88 82 93 125 170 159 174 199 214 228
213 221 271 245 262 329 355 192 192 198 224 222 234 233 243 249 252 227 100 173 184 213 201 237 225 56 45 32 216 225 222 162 148 169 312 105 353 126 150 275 134 343 146 159 152 290 125 258 116 24 311 275 267 268 254 245 246 263 270 267 261 261 269 272 267 265 277 273 268 273 275 274 273 286 290 99 72 76 92 170 146 151 106 100 103 50 2 359
276 76 305 323 277 221 180 225 196 193 215 214 228 235 245 228 246 251 220 16 200 189 185 211 150 95 25 96 49 113 127 153 132 144 130 151 170 349 104 292 88 155 111 30 19 292 39 254 345 314 300 278 276 276 271 54 11 293 279 264 257 260 270 258 259 255 255 257 260 265 261 262 304 92 101 119 70 78 43 58 34 65 79 68 47 310 301 288
58 331 348 284 293 221 159 212 204 189 222 218 219 222 227 221 242 231 270 158 68 36 58 111 138 123 165 99 216 221 118 133 126 98 105 80 33 36 105 246 162 156 210 169 219 149 199 162 166 226 242 254 281 101 109 42 334 295 253 253 260 253 246 258 258 255 250 256 262 258 263 236 187 157 120 90 82 7 50 39 52 1 79 149 227 253 259 274